Weather History for Monticello, AR

Change the Weather History Date:

Tuesday, January 22, 2013

  Actual Average Record
Temperature  
Mean Temperature 36 °F -  
Max Temperature 45 °F 50 °F 74 °F (1986)
Min Temperature 28 °F 31 °F 0 °F (1985)
Degree Days  
Heating Degree Days 28    
Moisture  
Dew Point 25 °F    
Average Humidity 58    
Maximum Humidity 85    
Minimum Humidity 39    
Precipitation  
Precipitation 0.00 in - - ()
Sea Level Pressure  
Sea Level Pressure 30.35 in    
Wind  
Wind Speed 3 mph (ESE)    
Max Wind Speed 10 mph    
Max Gust Speed -    
Visibility 10 miles    
Events      
Averages and records for this station are not official NWS values.
T = Trace of Precipitation, MM = Missing Value Source: NWS Daily Summary

Daily Weather History Graph

Daily Weather History Graph

Search for Another Location

Airport:

Trip Planner

Search our weather history database for the weather conditions in past years. The results will help you decide how hot, cold, wet, or windy it might be!

Date:

Astronomy

Jan. 22, 2013 Rise Set
Actual Time 7:09 AM CST 5:28 PM CST
Civil Twilight 6:42 AM CST 5:55 PM CST
Nautical Twilight 6:12 AM CST 6:25 PM CST
Astronomical Twilight 5:42 AM CST 6:55 PM CST
Moon 1:54 PM CST (1/22) 3:29 AM CST (1/22)
Length of Visible Light 11h 13m
Length of Day
10h 19m
Waxing Gibbous, 83% of the Moon is Illuminated
Jan 22
Waxing Gibbous
Jan 26
Full
Feb 3
Last Quarter
Feb 10
New
Feb 17
First Quarter

Hourly Weather History & Observations

Time (CST) Temp. Windchill Dew Point Humidity Pressure Visibility Wind Dir Wind Speed Gust Speed Precip Events Conditions
12:53 AM 32.0 °F - 25.0 °F 75% 30.33 in 10.0 mi Calm Calm - N/A   Clear
1:53 AM 33.1 °F 28.7 °F 26.1 °F 75% 30.34 in 10.0 mi NE 4.6 mph - N/A   Overcast
2:53 AM 33.1 °F - 25.0 °F 72% 30.35 in 10.0 mi Calm Calm - N/A   Scattered Clouds
3:53 AM 30.0 °F - 24.1 °F 79% 30.34 in 10.0 mi Calm Calm - N/A   Clear
4:53 AM 30.0 °F - 24.1 °F 79% 30.35 in 10.0 mi Calm Calm - N/A   Clear
5:53 AM 28.9 °F 25.2 °F 25.0 °F 85% 30.36 in 10.0 mi NE 3.5 mph - N/A   Partly Cloudy
6:53 AM 28.9 °F 23.9 °F 25.0 °F 85% 30.38 in 10.0 mi ENE 4.6 mph - N/A   Scattered Clouds
7:53 AM 28.9 °F 25.2 °F 25.0 °F 85% 30.40 in 10.0 mi NE 3.5 mph - N/A   Partly Cloudy
8:53 AM 35.1 °F 28.6 °F 25.0 °F 67% 30.41 in 10.0 mi ENE 8.1 mph - N/A   Clear
9:53 AM 37.9 °F 30.9 °F 21.9 °F 53% 30.42 in 10.0 mi ESE 10.4 mph - N/A   Clear
10:53 AM 42.1 °F 37.7 °F 19.0 °F 40% 30.42 in 10.0 mi ESE 6.9 mph - N/A   Partly Cloudy
11:53 AM 43.0 °F 40.3 °F 21.9 °F 43% 30.39 in 10.0 mi SE 4.6 mph - N/A   Mostly Cloudy
12:53 PM 45.0 °F 42.6 °F 21.0 °F 39% 30.36 in 10.0 mi SE 4.6 mph - N/A   Overcast
1:45 PM 44.6 °F 41.4 °F 23.0 °F 43% 30.33 in 10.0 mi SSE 5.8 mph - N/A   Overcast
1:53 PM 45.0 °F 41.8 °F 23.0 °F 42% 30.32 in 10.0 mi ESE 5.8 mph - N/A   Overcast
2:35 PM 44.6 °F 41.4 °F 23.0 °F 43% 30.32 in 10.0 mi SSE 5.8 mph - N/A   Overcast
2:53 PM 45.0 °F 41.8 °F 23.0 °F 42% 30.33 in 10.0 mi ESE 5.8 mph - N/A   Overcast
3:53 PM 45.0 °F 42.6 °F 24.1 °F 44% 30.33 in 10.0 mi East 4.6 mph - N/A   Overcast
4:27 PM 44.6 °F 41.4 °F 24.8 °F 46% 30.33 in 10.0 mi ENE 5.8 mph - N/A   Overcast
4:53 PM 44.1 °F 41.5 °F 24.1 °F 45% 30.33 in 10.0 mi ESE 4.6 mph - N/A   Overcast
5:53 PM 44.1 °F - 25.0 °F 47% 30.33 in 10.0 mi Calm Calm - N/A   Overcast
6:53 PM 44.1 °F - 27.0 °F 51% 30.33 in 10.0 mi Calm Calm - N/A   Overcast
7:53 PM 44.1 °F 40.8 °F 28.0 °F 53% 30.32 in 10.0 mi SE 5.8 mph - N/A   Overcast
8:53 PM 43.0 °F 39.5 °F 28.0 °F 56% 30.32 in 10.0 mi SE 5.8 mph - N/A   Overcast
9:13 PM 42.8 °F 40.1 °F 28.4 °F 57% 30.31 in 10.0 mi SE 4.6 mph - N/A   Scattered Clouds
9:53 PM 39.9 °F 37.8 °F 28.9 °F 65% 30.32 in 10.0 mi East 3.5 mph - N/A   Clear
10:53 PM 42.1 °F 40.2 °F 30.0 °F 62% 30.33 in 10.0 mi East 3.5 mph - N/A   Overcast
11:53 PM 42.1 °F - 30.0 °F 62% 30.32 in 10.0 mi Calm Calm - N/A   Overcast